EW5833 Weather Reports


time (UTC)temp
C
wind
direction
speed
KPH
gust
KPH
rain 1hr
cm
rain 24hr
cm
rain mn
cm
humidity
%
barometer
mb
20260503180244 16 243 6.4 11.3 0.00 0.03 0.00 41 1009.2
20260503180210 16 271 6.4 16.1 0.00 0.03 0.00 40 1009.3
20260503175242 16 271 6.4 16.1 0.00 0.03 0.00 40 1009.3
20260503174730 16 200 6.4 16.1 0.00 0.03 0.00 40 1009.5
20260503174454 16 200 6.4 16.1 0.00 0.03 0.00 40 1009.5
20260503173928 16 279 4.8 12.9 0.00 0.03 0.00 42 1009.5
20260503173817 16 279 4.8 12.9 0.00 0.03 0.00 42 1009.5
20260503172722 16 218 4.8 14.5 0.00 0.03 0.00 39 1009.7
20260503172452 16 218 4.8 14.5 0.00 0.03 0.00 39 1009.7
20260503171238 16 6 4.8 9.7 0.00 0.03 0.00 41 1009.8
20260503171149 16 235 4.8 12.9 0.00 0.03 0.00 40 1010.1
20260503170452 16 235 4.8 12.9 0.00 0.03 0.00 40 1010.1
20260503150234 14 281 4.8 9.7 0.00 0.00 0.00 42 1010.8
20260503140232 12 249 4.8 16.1 0.00 0.00 0.00 42 1011.1
20260503131229 10 211 3.2 8.0 0.00 0.03 0.00 51 1011.4
20260503130230 10 141 1.6 6.4 0.00 0.03 0.00 51 1011.3
20260503110230 3 200 3.2 4.8 0.00 0.03 0.00 60 1011.5
20260503100222 3 215 1.6 3.2 0.00 0.03 0.00 59 1012.0
20260503090428 3 219 0.0 3.2 0.00 0.03 0.00 56 1012.5
20260503081216 3 0 0.0 3.2 0.00 0.03 0.00 59 1012.8
20260503080217 3 0 0.0 4.8 0.00 0.03 0.00 59 1012.8
20260503072216 3 0 1.6 4.8 0.00 0.03 0.00 60 1012.9
20260503071214 3 0 1.6 4.8 0.00 0.03 0.00 60 1012.8
20260503070649 3 221 1.6 6.4 0.00 0.03 0.00 60 1012.9
20260503070212 3 221 1.6 6.4 0.00 0.03 0.00 60 1012.9
20260503060208 3 0 0.0 4.8 0.00 0.03 0.00 65 1013.4
20260503054654 3 0 0.0 4.8 0.00 0.03 0.00 65 1013.5
20260503054417 3 0 0.0 4.8 0.00 0.03 0.00 65 1013.5
20260503053658 3 239 0.0 4.8 0.00 0.03 0.00 67 1013.6
20260503053417 3 239 0.0 4.8 0.00 0.03 0.00 67 1013.6
20260503052204 3 0 0.0 3.2 0.00 0.03 0.00 67 1013.6
20260503052128 3 204 0.0 4.8 0.00 0.03 0.00 66 1013.6
20260503051203 3 204 0.0 4.8 0.00 0.03 0.00 66 1013.6
20260503050645 3 218 0.0 4.8 0.00 0.03 0.00 67 1013.7
20260503050201 3 218 0.0 4.8 0.00 0.03 0.00 67 1013.7
20260503045201 3 0 0.0 3.2 0.00 0.03 0.00 67 1013.8
20260503044202 3 0 0.0 3.2 0.00 0.03 0.00 67 1013.8
20260503043200 3 0 0.0 3.2 0.00 0.03 0.00 69 1013.9
20260503043054 2 0 0.0 3.2 0.00 0.03 0.00 70 1014.0
20260503042909 2 0 0.0 3.2 0.00 0.03 0.00 70 1014.0
20260503042904 3 0 0.0 3.2 0.00 0.03 0.00 69 1013.9
20260503042513 3 0 0.0 3.2 0.00 0.03 0.00 69 1013.9
20260503040641 2 0 0.0 1.6 0.00 0.03 0.00 72 1014.1
20260503040412 2 0 0.0 1.6 0.00 0.03 0.00 72 1014.1
20260503040127 2 0 0.0 0.0 0.00 0.03 0.03 75 1014.1
20260503035201 2 0 0.0 0.0 0.00 0.03 0.03 75 1014.1
20260503034649 2 0 0.0 1.6 0.00 0.03 0.03 76 1014.2
20260503034412 2 0 0.0 1.6 0.00 0.03 0.03 76 1014.2
20260503033850 1 0 0.0 0.0 0.00 0.03 0.03 77 1014.2
20260503033754 1 0 0.0 0.0 0.00 0.03 0.03 77 1014.2
20260503032650 1 0 0.0 3.2 0.00 0.03 0.03 79 1014.3
20260503032201 1 0 0.0 3.2 0.00 0.03 0.03 79 1014.3
20260503031200 1 0 0.0 3.2 0.00 0.03 0.03 82 1014.4
20260503031131 0 0 0.0 0.0 0.00 0.03 0.03 87 1014.4
20260503030201 0 0 0.0 0.0 0.00 0.03 0.03 87 1014.4
20260503025652 0 0 0.0 0.0 0.00 0.03 0.03 86 1014.5
20260503025201 0 0 0.0 0.0 0.00 0.03 0.03 86 1014.5
20260503024644 1 0 0.0 0.0 0.00 0.03 0.03 85 1014.5
20260503024217 1 0 0.0 0.0 0.00 0.03 0.03 85 1014.6
20260503024212 1 0 0.0 0.0 0.00 0.03 0.03 85 1014.5
20260503024017 1 0 0.0 0.0 0.00 0.03 0.03 84 1014.7
20260503023355 1 0 0.0 0.0 0.00 0.03 0.03 85 1014.6
20260503022724 1 0 0.0 0.0 0.00 0.03 0.03 84 1014.7
20260503021145 2 0 0.0 0.0 0.00 0.03 0.03 82 1014.7
20260503020830 2 0 0.0 0.0 0.00 0.03 0.03 80 1014.6
20260503020715 2 0 0.0 0.0 0.00 0.03 0.03 80 1014.6
20260503015621 2 0 0.0 0.0 0.00 0.03 0.03 78 1014.6
20260503015139 2 0 0.0 0.0 0.00 0.03 0.03 78 1014.6
20260503014624 2 0 0.0 0.0 0.00 0.03 0.03 76 1014.6
20260503014138 2 0 0.0 0.0 0.00 0.03 0.03 76 1014.6
20260503013613 2 0 0.0 0.0 0.00 0.03 0.03 74 1014.5
20260503013348 2 0 0.0 0.0 0.00 0.03 0.03 74 1014.5
20260503012307 3 0 0.0 0.0 0.00 0.03 0.03 71 1014.5
20260503012139 3 0 0.0 0.0 0.00 0.03 0.03 70 1014.5
20260503011715 3 0 0.0 0.0 0.00 0.03 0.03 71 1014.5
20260503010133 3 0 0.0 0.0 0.00 0.03 0.03 63 1014.5
20260503005827 4 0 0.0 0.0 0.00 0.03 0.03 63 1014.4
20260503005709 4 0 0.0 0.0 0.00 0.03 0.03 63 1014.4
20260503004130 5 0 0.0 0.0 0.00 0.03 0.03 60 1014.3
20260503003130 5 0 0.0 0.0 0.00 0.03 0.03 56 1014.3
20260503002130 6 0 0.0 1.6 0.00 0.03 0.03 53 1014.3
20260503001129 6 0 0.0 3.2 0.00 0.03 0.03 51 1014.3
20260503001026 8 169 3.2 11.3 0.00 0.03 0.03 44 1014.5
20260503000835 7 0 0.0 0.0 0.00 0.03 0.03 49 1014.3
20260503000538 7 76 3.2 16.1 0.00 0.03 0.03 46 1014.6
20260503000526 7 321 6.4 17.7 0.00 0.03 0.03 46 1014.8
20260503000521 8 169 3.2 11.3 0.00 0.03 0.03 44 1014.5
20260503000517 7 297 4.8 14.5 0.00 0.03 0.03 45 1014.6
20260503000419 7 0 0.0 0.0 0.00 0.03 0.03 49 1014.3
20260502235921 8 240 1.6 8.0 0.00 0.03 0.03 47 1014.5
20260502235916 7 76 3.2 16.1 0.00 0.03 0.03 46 1014.6
20260502235911 7 302 3.2 11.3 0.00 0.03 0.03 43 1014.5
20260502235614 7 297 4.8 14.5 0.00 0.03 0.03 45 1014.6
20260502235608 7 0 3.2 9.7 0.00 0.03 0.03 46 1014.7
20260502235559 7 289 1.6 8.0 0.00 0.03 0.03 47 1014.6
20260502235549 7 0 1.6 12.9 0.00 0.03 0.03 46 1014.6
20260502235543 7 302 3.2 11.3 0.00 0.03 0.03 43 1014.5
20260502235538 7 328 3.2 8.0 0.00 0.03 0.03 44 1014.5
20260502235242 7 328 3.2 8.0 0.00 0.03 0.03 44 1014.5
20260502235217 7 0 0.0 4.8 0.00 0.03 0.03 46 1014.4
20260502234940 7 0 0.0 3.2 0.00 0.03 0.03 46 1014.4
20260502234638 8 281 3.2 11.3 0.00 0.03 0.03 42 1014.5
20260502234633 8 342 1.6 8.0 0.00 0.03 0.03 42 1014.5
20260502234626 7 82 3.2 12.9 0.00 0.03 0.03 46 1014.4
20260502234616 7 261 1.6 12.9 0.00 0.03 0.03 44 1014.4
20260502234605 8 0 1.6 12.9 0.00 0.03 0.03 42 1014.4
20260502234556 8 0 3.2 14.5 0.00 0.03 0.03 45 1014.3
20260502234550 7 0 1.6 8.0 0.00 0.03 0.03 44 1014.4
20260502234235 7 0 0.0 3.2 0.00 0.03 0.03 46 1014.4
20260502233344 7 0 1.6 8.0 0.00 0.03 0.03 44 1014.4
20260502232840 8 342 1.6 8.0 0.00 0.03 0.03 42 1014.5
20260502232835 7 0 3.2 9.7 0.00 0.03 0.03 46 1014.7
20260502232829 7 82 3.2 12.9 0.00 0.03 0.03 46 1014.4
20260502204130 7 306 3.2 11.3 0.00 0.03 0.03 48 1014.8
20260502204050 7 251 3.2 11.3 0.00 0.03 0.03 48 1014.9
20260502203340 7 251 3.2 11.3 0.00 0.03 0.03 48 1014.9
20260502202130 7 280 1.6 8.0 0.00 0.03 0.03 47 1014.9
20260502201616 7 252 3.2 11.3 0.00 0.03 0.03 47 1015.0
20260502201340 7 252 3.2 11.3 0.00 0.03 0.03 47 1015.0
20260502201059 7 291 4.8 17.7 0.00 0.03 0.03 48 1015.2
20260502200342 7 291 4.8 17.7 0.00 0.03 0.03 48 1015.2
20260502195130 7 270 6.4 14.5 0.00 0.03 0.03 47 1015.2
20260502195050 7 296 3.2 14.5 0.00 0.03 0.03 45 1015.3
20260502194340 7 296 3.2 14.5 0.00 0.03 0.03 45 1015.3
20260502193129 8 264 4.8 16.1 0.00 0.03 0.03 45 1015.4
20260502192608 7 327 3.2 16.1 0.00 0.03 0.03 47 1015.3
20260502192341 7 327 3.2 16.1 0.00 0.03 0.03 47 1015.3
20260502191606 7 0 3.2 11.3 0.00 0.03 0.03 47 1015.5
20260502191342 7 0 3.2 11.3 0.00 0.03 0.03 47 1015.5
20260502190130 7 40 4.8 9.7 0.00 0.03 0.03 47 1015.6
20260502185611 7 346 3.2 14.5 0.00 0.03 0.03 48 1015.7
20260502185129 7 346 3.2 14.5 0.00 0.03 0.03 48 1015.7
20260502184129 7 277 4.8 12.9 0.00 0.03 0.03 47 1015.8
20260502183611 8 241 3.2 12.9 0.00 0.03 0.03 44 1015.6
20260502183128 8 241 3.2 12.9 0.00 0.03 0.03 44 1015.6
20260502182130 7 155 6.4 16.1 0.00 0.03 0.03 47 1015.8
20260502181612 7 156 4.8 16.1 0.00 0.03 0.03 45 1015.7
20260502181339 7 156 4.8 16.1 0.00 0.03 0.03 45 1015.7
20260502180602 6 224 4.8 14.5 0.00 0.03 0.03 48 1016.0